Project,Study,Ord_Occ,Event_Num,Cast_ID,Date_Time_UTC,Date_Time_PST,Lat_Dec,Lon_Dec,Sta_ID,Line,Sta,Depth,Pressure,PrQ,Temp1,Temp1Q,Temp2,Temp2Q,TempAve,Salt1,Salt1Q,Salt1_Corr,Salt2,Salt2Q,Salt2_Corr,SaltAve_Corr,Ox1,Ox1Q,Ox1_CruiseCorr,Ox1_StaCorr,Ox2,Ox2Q,Ox2_CruiseCorr,Ox2_StaCorr,OxAve_StaCorr,Ox1uM,Ox1uM_CruiseCorr,Ox1uM_StaCorr,Ox2uM,Ox2uM_CruiseCorr,Ox2uM_StaCorr,OxAveuM_StaCorr,FluorV,FluorQ,EstChl_CruiseCorr,EstChl_StaCorr,ISUSV,ISUSQ,EstNO3_CruiseCorr,EstNO3_StaCorr,SigThetaTS1,SigThetaTS1Q,SigThetaTS2,SigThetaTS2Q,BAT,XMiss,TransQ,pH,pHQ,SPAR,SPARQ,PAR,PARQ,PoT1,PoT2,DynHt,SVA,OxSat1,OxSat2,BTL_Depth,BTL_Temp,SaltB,OxB,OxBuM,Chl-a,Phaeo,NO3,NO2,NH4,PO4,SIL
CalCOFI,2007SR,045,47,2007_045d,21-Jul-2020 15:02:06,21-Jul-2020 07:02:06,31.65605,-123.06934,086.7 100.0,086.7,100.0,2.000,2.014,,17.8572,,17.8571,,17.8572,33.2234,,33.2236,33.2238,,33.2254,33.2245,5.3351,,5.5569,5.5716,4.0823,,5.8045,4.3088,4.9402,232.693,242.4201,222.0060,178.050,403.5890,175.3067,198.6564,0.0360,,,0.0666,0.0975,,0.0000,,23.9466,,23.9470,,0.6831,84.3005,,8.127,,2.6944E+02,,1.1421E+01,,17.8569,17.8568,0.0026,,98.010,74.995,2,17.869,33.2207,5.578,243.55,0.099,0.021,0.0,0.00,0.00,0.29,0.95
CalCOFI,2007SR,045,47,2007_045d,21-Jul-2020 15:02:10,21-Jul-2020 07:02:10,31.65606,-123.06934,086.7 100.0,086.7,100.0,3.000,3.021,,17.8581,,17.8579,,17.8580,33.2232,,33.2234,33.2235,,33.2251,33.2243,5.3328,,5.5545,5.5692,4.0849,,5.8107,4.3148,4.9420,232.594,242.3168,221.9163,178.164,403.3469,175.5464,198.7314,0.0355,,,0.0637,0.0031,,0.0000,,23.9463,,23.9466,,0.6850,84.2602,,8.127,,2.7109E+02,,9.8852E+00,,17.8576,17.8574,0.0076,,97.970,75.044,,,,,,,,,,,,
CalCOFI,2007SR,045,47,2007_045d,21-Jul-2020 15:02:13,21-Jul-2020 07:02:13,31.65604,-123.06934,086.7 100.0,086.7,100.0,4.000,4.028,,17.8578,,17.8575,,17.8577,33.2229,,33.2231,33.2235,,33.2251,33.2241,5.3350,,5.5568,5.5715,4.0861,,5.8135,4.3176,4.9446,232.691,242.4180,222.0042,178.217,403.5842,175.6578,198.8310,0.0354,,,0.0631,0.0250,,0.0000,,23.9461,,23.9467,,0.6838,84.2874,,8.127,,2.7041E+02,,8.6014E+00,,17.8572,17.8569,0.0116,,98.010,75.065,,,,,,,,,,,,
CalCOFI,2007SR,045,47,2007_045d,21-Jul-2020 15:02:16,21-Jul-2020 07:02:16,31.65606,-123.06934,086.7 100.0,086.7,100.0,5.000,5.035,,17.8577,,17.8576,,17.8577,33.2230,,33.2232,33.2236,,33.2252,33.2242,5.3352,,5.5571,5.5718,4.0905,,5.8241,4.3278,4.9498,232.696,242.4233,222.0087,178.408,403.5964,176.0593,199.0340,0.0353,,,0.0625,0.0082,,0.0000,,23.9463,,23.9468,,0.6835,84.2929,,8.127,,2.7056E+02,,7.8332E+00,,17.8568,17.8568,0.0156,,98.012,75.146,,,,,,,,,,,,
CalCOFI,2007SR,045,47,2007_045d,21-Jul-2020 15:02:18,21-Jul-2020 07:02:18,31.65604,-123.06934,086.7 100.0,086.7,100.0,6.000,6.042,,17.8581,,17.8580,,17.8581,33.2231,,33.2233,33.2238,,33.2254,33.2244,5.3322,,5.5539,5.5686,4.0915,,5.8264,4.3301,4.9494,232.569,242.2907,221.8936,178.451,403.2858,176.1497,199.0217,0.0354,,,0.0631,0.0121,,0.0000,,23.9463,,23.9469,,0.6845,84.2723,,8.127,,2.7041E+02,,7.3878E+00,,17.8571,17.8569,0.0196,,97.959,75.165,,,,,,,,,,,,
CalCOFI,2007SR,045,47,2007_045d,21-Jul-2020 15:02:19,21-Jul-2020 07:02:19,31.65604,-123.06934,086.7 100.0,086.7,100.0,7.000,7.049,,17.8586,,17.8587,,17.8587,33.2231,,33.2233,33.2236,,33.2252,33.2243,5.3308,,5.5525,5.5671,4.0939,,5.8322,4.3357,4.9514,232.505,242.2239,221.8356,178.559,403.1292,176.3768,199.1062,0.0367,,0.0070,0.0708,0.0156,,0.0000,,23.9462,,23.9467,,0.6832,84.2995,,8.127,,2.7041E+02,,6.9166E+00,,17.8575,17.8575,0.0236,,97.933,75.211,,,,,,,,,,,,
CalCOFI,2007SR,045,47,2007_045d,21-Jul-2020 15:02:21,21-Jul-2020 07:02:21,31.65606,-123.06934,086.7 100.0,086.7,100.0,8.000,8.056,,17.8593,,17.8591,,17.8592,33.2230,,33.2232,33.2236,,33.2252,33.2242,5.3298,,5.5514,5.5661,4.0940,,5.8324,4.3359,4.9510,232.461,242.1779,221.7957,178.564,403.0216,176.3873,199.0915,0.0362,,0.0012,0.0678,0.0211,,0.0000,,23.9461,,23.9466,,0.6828,84.3068,,8.127,,2.7185E+02,,6.3277E+00,,17.8579,17.8577,0.0276,,97.916,75.214,,,,,,,,,,,,
CalCOFI,2007SR,045,47,2007_045d,21-Jul-2020 15:02:24,21-Jul-2020 07:02:24,31.65606,-123.06934,086.7 100.0,086.7,100.0,9.000,9.063,,17.8594,,17.8593,,17.8594,33.2231,,33.2233,33.2237,,33.2253,33.2243,5.3306,,5.5522,5.5669,4.0956,,5.8362,4.3396,4.9533,232.498,242.2166,221.8292,178.632,403.1121,176.5302,199.1797,0.0361,,,0.0672,0.0272,,0.0000,,23.9462,,23.9466,,0.6843,84.2752,,8.127,,2.7231E+02,,6.0092E+00,,17.8578,17.8578,0.0315,,97.932,75.243,,,,,,,,,,,,
CalCOFI,2007SR,045,47,2007_045d,21-Jul-2020 15:02:26,21-Jul-2020 07:02:26,31.65604,-123.06934,086.7 100.0,086.7,100.0,10.000,10.070,,17.8597,,17.8596,,17.8597,33.2230,,33.2232,33.2236,,33.2252,33.2242,5.3297,,5.5513,5.5660,4.0956,,5.8362,4.3396,4.9528,232.459,242.1759,221.7939,178.632,403.0167,176.5302,199.1621,0.0358,,,0.0654,0.0327,,0.0000,,23.9460,,23.9466,,0.6841,84.2792,,8.127,,2.7088E+02,,5.7034E+00,,17.8580,17.8579,0.0355,,97.916,75.243,,,,,,,,,,,,
CalCOFI,2007SR,045,47,2007_045d,21-Jul-2020 15:02:28,21-Jul-2020 07:02:28,31.65605,-123.06934,086.7 100.0,086.7,100.0,11.000,11.077,,17.8590,,17.8586,,17.8588,33.2233,,33.2235,33.2240,,33.2256,33.2246,5.3294,,5.5510,5.5657,4.0963,,5.8379,4.3412,4.9535,232.445,242.1612,221.7812,178.660,402.9825,176.5891,199.1852,0.0365,,0.0047,0.0696,0.0350,,0.0000,,23.9465,,23.9471,,0.6851,84.2592,,8.127,,2.7235E+02,,5.3550E+00,,17.8571,17.8567,0.0395,,97.909,75.254,11,17.856,33.2205,5.580,243.64,0.126,0.025,0.0,0.00,0.00,0.28,0.89
CalCOFI,2007SR,045,47,2007_045d,21-Jul-2020 15:02:30,21-Jul-2020 07:02:30,31.65606,-123.06934,086.7 100.0,086.7,100.0,12.000,12.084,,17.8587,,17.8585,,17.8586,33.2235,,33.2237,33.2242,,33.2258,33.2248,5.3334,,5.5552,5.5699,4.0995,,5.8455,4.3487,4.9593,232.621,242.3450,221.9408,178.803,403.4129,176.8897,199.4153,0.0362,,0.0012,0.0678,0.0356,,0.0000,,23.9467,,23.9473,,0.6820,84.3258,,8.127,,2.7231E+02,,5.1780E+00,,17.8567,17.8565,0.0435,,97.983,75.314,,,,,,,,,,,,
CalCOFI,2007SR,045,47,2007_045d,21-Jul-2020 15:02:32,21-Jul-2020 07:02:32,31.65606,-123.06934,086.7 100.0,086.7,100.0,13.000,13.091,,17.8584,,17.8585,,17.8585,33.2235,,33.2237,33.2241,,33.2257,33.2247,5.3323,,5.5540,5.5687,4.1010,,5.8491,4.3521,4.9604,232.570,242.2917,221.8945,178.869,403.2882,177.0285,199.4615,0.0361,,,0.0672,0.0353,,0.0000,,23.9468,,23.9473,,0.6819,84.3265,,8.127,,2.7231E+02,,4.9342E+00,,17.8562,17.8563,0.0475,,97.960,75.342,,,,,,,,,,,,
CalCOFI,2007SR,045,47,2007_045d,21-Jul-2020 15:02:34,21-Jul-2020 07:02:34,31.65606,-123.06934,086.7 100.0,086.7,100.0,14.000,14.098,,17.8578,,17.8576,,17.8577,33.2236,,33.2238,33.2243,,33.2259,33.2249,5.3304,,5.5520,5.5667,4.1014,,5.8501,4.3531,4.9599,232.488,242.2061,221.8202,178.886,403.0876,177.0642,199.4422,0.0359,,,0.0660,0.0352,,0.0000,,23.9471,,23.9477,,0.6820,84.3250,,8.127,,2.7231E+02,,4.7031E+00,,17.8554,17.8553,0.0515,,97.925,75.348,,,,,,,,,,,,
CalCOFI,2007SR,045,47,2007_045d,21-Jul-2020 15:02:36,21-Jul-2020 07:02:36,31.65606,-123.06934,086.7 100.0,086.7,100.0,15.000,15.105,,17.8580,,17.8578,,17.8579,33.2236,,33.2238,33.2244,,33.2260,33.2249,5.3325,,5.5542,5.5689,4.1049,,5.8584,4.3612,4.9651,232.581,242.3032,221.9045,179.037,403.3151,177.3817,199.6431,0.0365,,0.0047,0.0696,0.0357,,0.0000,,23.9471,,23.9478,,0.6872,84.2148,,8.127,,2.7322E+02,,4.6038E+00,,17.8555,17.8553,0.0554,,97.964,75.412,,,,,,,,,,,,
CalCOFI,2007SR,045,47,2007_045d,21-Jul-2020 15:02:38,21-Jul-2020 07:02:38,31.65606,-123.06934,086.7 100.0,086.7,100.0,16.000,16.112,,17.8537,,17.8544,,17.8541,33.2255,,33.2257,33.2258,,33.2274,33.2266,5.3355,,5.5574,5.5721,4.1053,,5.8594,4.3621,4.9671,232.708,242.4358,222.0196,179.056,403.6257,177.4216,199.7206,0.0358,,,0.0654,0.0369,,0.0000,,23.9496,,23.9497,,0.6953,84.0453,,8.126,,2.7425E+02,,4.3885E+00,,17.8510,17.8517,0.0594,,98.011,75.416,,,,,,,,,,,,
CalCOFI,2007SR,045,47,2007_045d,21-Jul-2020 15:02:40,21-Jul-2020 07:02:40,31.65606,-123.06934,086.7 100.0,086.7,100.0,17.000,17.119,,17.8539,,17.8547,,17.8543,33.2263,,33.2265,33.2267,,33.2283,33.2274,5.3309,,5.5526,5.5672,4.1076,,5.8649,4.3674,4.9673,232.508,242.2270,221.8383,179.156,403.1366,177.6318,199.7351,0.0359,,,0.0660,0.0378,,0.0000,,23.9502,,23.9504,,0.6839,84.2851,,8.126,,2.7422E+02,,4.2318E+00,,17.8510,17.8518,0.0634,,97.928,75.459,,,,,,,,,,,,
CalCOFI,2007SR,045,47,2007_045d,21-Jul-2020 15:02:42,21-Jul-2020 07:02:42,31.65606,-123.06934,086.7 100.0,086.7,100.0,18.000,18.127,,17.8562,,17.8561,,17.8562,33.2258,,33.2260,33.2262,,33.2278,33.2269,5.3318,,5.5535,5.5682,4.1081,,5.8661,4.3686,4.9684,232.548,242.2688,221.8746,179.176,403.2344,177.6739,199.7743,0.0364,,0.0035,0.0690,0.0384,,0.0000,,23.9494,,23.9497,,0.6852,84.2563,,8.126,,2.7422E+02,,4.0342E+00,,17.8531,17.8531,0.0674,,97.949,75.469,,,,,,,,,,,,
CalCOFI,2007SR,045,47,2007_045d,21-Jul-2020 15:02:45,21-Jul-2020 07:02:45,31.65606,-123.06934,086.7 100.0,086.7,100.0,19.000,19.134,,17.8558,,17.8564,,17.8561,33.2272,,33.2274,33.2270,,33.2286,33.2280,5.3364,,5.5583,5.5730,4.1101,,5.8708,4.3732,4.9731,232.749,242.4786,222.0568,179.264,403.7260,177.8589,199.9579,0.0359,,,0.0660,0.0385,,0.0000,,23.9506,,23.9502,,0.6870,84.2200,,8.126,,2.7422E+02,,3.8154E+00,,17.8526,17.8532,0.0714,,98.033,75.506,,,,,,,,,,,,
CalCOFI,2007SR,045,47,2007_045d,21-Jul-2020 15:02:47,21-Jul-2020 07:02:47,31.65606,-123.06934,086.7 100.0,086.7,100.0,20.000,20.141,,17.8538,,17.8538,,17.8538,33.2291,,33.2293,33.2299,,33.2315,33.2304,5.3324,,5.5541,5.5688,4.1129,,5.8775,4.3797,4.9743,232.575,242.2969,221.8990,179.388,403.3004,178.1196,200.0093,0.0365,,0.0047,0.0696,0.0380,,0.0000,,23.9525,,23.9532,,0.7763,82.3698,,8.125,,2.7422E+02,,3.7760E+00,,17.8504,17.8504,0.0754,,97.958,75.556,,,,,,,,,,,,
CalCOFI,2007SR,045,47,2007_045d,21-Jul-2020 15:02:48,21-Jul-2020 07:02:48,31.65606,-123.06934,086.7 100.0,086.7,100.0,21.000,21.148,,17.8531,,17.8531,,17.8531,33.2292,,33.2294,33.2300,,33.2316,33.2305,5.3308,,5.5525,5.5671,4.1128,,5.8773,4.3795,4.9733,232.503,242.2218,221.8338,179.381,403.1243,178.1049,199.9694,0.0367,,0.0070,0.0708,0.0369,,0.0000,,23.9528,,23.9535,,0.8088,81.6991,,8.125,,2.7527E+02,,3.6857E+00,,17.8496,17.8495,0.0793,,97.926,75.553,,,,,,,,,,,,
CalCOFI,2007SR,045,47,2007_045d,21-Jul-2020 15:02:50,21-Jul-2020 07:02:50,31.65606,-123.06934,086.7 100.0,086.7,100.0,22.000,22.155,,17.8542,,17.8540,,17.8541,33.2304,,33.2306,33.2309,,33.2325,33.2316,5.3357,,5.5576,5.5723,4.1132,,5.8782,4.3804,4.9764,232.719,242.4473,222.0296,179.399,403.6526,178.1427,200.0862,0.0381,,0.0235,0.0790,0.0354,,0.0000,,23.9536,,23.9539,,0.7142,83.6494,,8.125,,2.7610E+02,,3.5727E+00,,17.8505,17.8503,0.0833,,98.020,75.562,,,,,,,,,,,,
CalCOFI,2007SR,045,47,2007_045d,21-Jul-2020 15:02:52,21-Jul-2020 07:02:52,31.65606,-123.06934,086.7 100.0,086.7,100.0,23.000,23.162,,17.8547,,17.8545,,17.8546,33.2301,,33.2303,33.2307,,33.2323,33.2313,5.3327,,5.5544,5.5691,4.1148,,5.8821,4.3841,4.9766,232.588,242.3105,221.9108,179.468,403.3322,178.2878,200.0993,0.0372,,0.0129,0.0737,0.0333,,0.0000,,23.9532,,23.9538,,0.6861,84.2387,,8.125,,2.7522E+02,,3.4813E+00,,17.8508,17.8506,0.0873,,97.966,75.592,,,,,,,,,,,,
CalCOFI,2007SR,045,47,2007_045d,21-Jul-2020 15:02:54,21-Jul-2020 07:02:54,31.65606,-123.06934,086.7 100.0,086.7,100.0,24.000,24.169,,17.8551,,17.8561,,17.8556,33.2316,,33.2318,33.2336,,33.2352,33.2335,5.3346,,5.5564,5.5711,4.1178,,5.8892,4.3911,4.9811,232.669,242.3951,221.9843,179.598,403.5303,178.5611,200.2727,0.0370,,0.0105,0.0726,0.0310,,0.0000,,23.9543,,23.9556,,0.6829,84.3064,,8.125,,2.7421E+02,,3.3789E+00,,17.8510,17.8521,0.0913,,98.002,75.650,,,,,,,,,,,,
CalCOFI,2007SR,045,47,2007_045d,21-Jul-2020 15:02:56,21-Jul-2020 07:02:56,31.65606,-123.06934,086.7 100.0,086.7,100.0,25.000,25.176,,17.8559,,17.8560,,17.8560,33.2325,,33.2327,33.2333,,33.2349,33.2338,5.3345,,5.5563,5.5710,4.1185,,5.8909,4.3927,4.9819,232.664,242.3898,221.9797,179.628,403.5181,178.6241,200.3019,0.0372,,0.0129,0.0737,0.0328,,0.0000,,23.9549,,23.9555,,0.6843,84.2757,,8.124,,2.7665E+02,,3.2878E+00,,17.8517,17.8518,0.0953,,98.001,75.663,,,,,,,,,,,,
CalCOFI,2007SR,045,47,2007_045d,21-Jul-2020 15:02:59,21-Jul-2020 07:02:59,31.65606,-123.06934,086.7 100.0,086.7,100.0,26.000,26.183,,17.8627,,17.8654,,17.8641,33.2386,,33.2388,33.2432,,33.2448,33.2418,5.3343,,5.5561,5.5708,4.1176,,5.8887,4.3906,4.9807,232.654,242.3794,221.9707,179.591,403.4937,178.5463,200.2585,0.0374,,0.0152,0.0749,0.0483,,0.0000,,23.9579,,23.9608,,0.6859,84.2422,,8.123,,2.7808E+02,,3.2159E+00,,17.8583,17.8610,0.0992,,98.014,75.665,26,17.857,33.2254,5.544,242.08,0.104,0.021,0.0,0.00,0.00,0.28,0.87
CalCOFI,2007SR,045,47,2007_045d,21-Jul-2020 15:03:00,21-Jul-2020 07:03:00,31.65606,-123.06934,086.7 100.0,086.7,100.0,27.000,27.190,,17.8884,,17.8873,,17.8879,33.2628,,33.2630,33.2618,,33.2634,33.2632,5.3312,,5.5529,5.5675,4.1159,,5.8847,4.3867,4.9771,232.517,242.2364,221.8465,179.514,403.1586,178.3845,200.1155,0.0383,,0.0258,0.0802,0.0626,,0.0000,,23.9702,,23.9698,,0.6848,84.2653,,8.124,,2.7668E+02,,3.1193E+00,,17.8838,17.8827,0.1032,,98.020,75.674,,,,,,,,,,,,
CalCOFI,2007SR,045,47,2007_045d,21-Jul-2020 15:03:02,21-Jul-2020 07:03:02,31.65606,-123.06934,086.7 100.0,086.7,100.0,28.000,28.198,,17.8917,,17.8921,,17.8919,33.2620,,33.2622,33.2631,,33.2647,33.2635,5.3325,,5.5542,5.5689,4.1160,,5.8849,4.3869,4.9779,232.575,242.2969,221.8990,179.518,403.3004,178.3929,200.1460,0.0392,,0.0364,0.0854,0.0739,,0.0000,,23.9688,,23.9697,,0.6831,84.3004,,8.124,,2.7614E+02,,3.0343E+00,,17.8870,17.8873,0.1072,,98.049,75.683,,,,,,,,,,,,
CalCOFI,2007SR,045,47,2007_045d,21-Jul-2020 15:03:04,21-Jul-2020 07:03:04,31.65606,-123.06934,086.7 100.0,086.7,100.0,29.000,29.205,,17.8909,,17.8913,,17.8911,33.2630,,33.2632,33.2648,,33.2664,33.2648,5.3377,,5.5597,5.5744,4.1165,,5.8861,4.3880,4.9812,232.800,242.5318,222.1030,179.541,403.8508,178.4412,200.2721,0.0384,,0.0270,0.0808,0.0867,,0.0000,,23.9699,,23.9711,,0.6846,84.2702,,8.124,,2.7655E+02,,2.9640E+00,,17.8860,17.8864,0.1111,,98.144,75.692,,,,,,,,,,,,
CalCOFI,2007SR,045,47,2007_045d,21-Jul-2020 15:03:07,21-Jul-2020 07:03:07,31.65606,-123.06934,086.7 100.0,086.7,100.0,30.000,30.212,,17.9330,,17.9304,,17.9317,33.3145,,33.3147,33.3117,,33.3133,33.3140,5.3280,,5.5495,5.5642,4.1127,,5.8770,4.3792,4.9717,232.374,242.0871,221.7168,179.369,402.8088,178.0796,199.8982,0.0407,,0.0540,0.0940,0.0916,,0.0000,,23.9991,,23.9976,,0.6873,84.2136,,8.126,,2.7899E+02,,2.8872E+00,,17.9279,17.9253,0.1151,,98.076,75.699,,,,,,,,,,,,
CalCOFI,2007SR,045,47,2007_045d,21-Jul-2020 15:03:08,21-Jul-2020 07:03:08,31.65606,-123.06934,086.7 100.0,086.7,100.0,31.000,31.219,,17.9581,,17.9580,,17.9581,33.3572,,33.3574,33.3590,,33.3606,33.3590,5.3223,,5.5436,5.5582,4.1098,,5.8701,4.3725,4.9654,232.116,241.8178,221.4829,179.236,402.1778,177.8000,199.6415,0.0426,,0.0763,0.1047,0.0906,,0.0000,,24.0258,,24.0271,,0.6886,84.1863,,8.126,,2.7857E+02,,2.8296E+00,,17.9528,17.9528,0.1190,,98.041,75.707,,,,,,,,,,,,
CalCOFI,2007SR,045,47,2007_045d,21-Jul-2020 15:03:10,21-Jul-2020 07:03:10,31.65606,-123.06934,086.7 100.0,086.7,100.0,32.000,32.226,,17.9581,,17.9590,,17.9586,33.3656,,33.3658,33.3681,,33.3697,33.3678,5.3231,,5.5444,5.5590,4.1133,,5.8785,4.3806,4.9698,232.148,241.8512,221.5119,179.389,402.2561,178.1217,199.8168,0.0446,,0.0998,0.1157,0.0847,,0.0000,,24.0322,,24.0339,,0.6875,84.2073,,8.127,,2.7769E+02,,2.7574E+00,,17.9526,17.9536,0.1229,,98.060,75.777,,,,,,,,,,,,
CalCOFI,2007SR,045,47,2007_045d,21-Jul-2020 15:03:13,21-Jul-2020 07:03:13,31.65606,-123.06934,086.7 100.0,086.7,100.0,33.000,33.233,,17.9201,,17.9166,,17.9184,33.3803,,33.3805,33.3789,,33.3805,33.3805,5.3340,,5.5558,5.5705,4.1173,,5.8880,4.3899,4.9802,232.621,242.3450,221.9408,179.561,403.4129,178.4833,200.2121,0.0426,,0.0763,0.1047,0.0721,,0.0000,,24.0528,,24.0525,,0.6855,84.2498,,8.127,,2.7875E+02,,2.6991E+00,,17.9145,17.9109,0.1268,,98.200,75.795,,,,,,,,,,,,
CalCOFI,2007SR,045,47,2007_045d,21-Jul-2020 15:03:14,21-Jul-2020 07:03:14,31.65606,-123.06934,086.7 100.0,086.7,100.0,34.000,34.240,,17.8748,,17.8747,,17.8748,33.3797,,33.3799,33.3805,,33.3821,33.3810,5.3348,,5.5566,5.5713,4.1212,,5.8973,4.3989,4.9851,232.653,242.3784,221.9698,179.729,403.4912,178.8365,200.4032,0.0406,,0.0528,0.0934,0.0594,,0.0000,,24.0633,,24.0639,,0.6836,84.2898,,8.127,,2.7982E+02,,2.6316E+00,,17.8691,17.8690,0.1307,,98.129,75.807,,,,,,,,,,,,
CalCOFI,2007SR,045,47,2007_045d,21-Jul-2020 15:03:17,21-Jul-2020 07:03:17,31.65606,-123.06934,086.7 100.0,086.7,100.0,35.000,35.248,,17.8771,,17.8746,,17.8759,33.3910,,33.3912,33.3914,,33.3930,33.3921,5.3239,,5.5452,5.5599,4.1215,,5.8981,4.3996,4.9798,232.174,241.8783,221.5355,179.739,402.3196,178.8575,200.1965,0.0423,,0.0728,0.1030,0.0423,,0.0000,,24.0715,,24.0723,,0.6838,84.2864,,8.127,,2.7795E+02,,2.5719E+00,,17.8711,17.8687,0.1346,,97.939,75.817,,,,,,,,,,,,
CalCOFI,2007SR,045,47,2007_045d,21-Jul-2020 15:03:19,21-Jul-2020 07:03:19,31.65606,-123.06934,086.7 100.0,086.7,100.0,36.000,36.255,,17.8736,,17.8750,,17.8743,33.4083,,33.4085,33.4099,,33.4115,33.4100,5.3224,,5.5437,5.5583,4.1217,,5.8985,4.4001,4.9792,232.109,241.8105,221.4766,179.747,402.1607,178.8743,200.1755,0.0427,,0.0775,0.1052,0.0346,,0.0000,,24.0856,,24.0865,,0.6834,84.2960,,8.127,,2.7914E+02,,2.5261E+00,,17.8674,17.8689,0.1385,,97.916,75.830,,,,,,,,,,,,
CalCOFI,2007SR,045,47,2007_045d,21-Jul-2020 15:03:20,21-Jul-2020 07:03:20,31.65606,-123.06934,086.7 100.0,086.7,100.0,37.000,37.262,,17.8828,,17.8827,,17.8828,33.4118,,33.4120,33.4125,,33.4141,33.4131,5.3254,,5.5468,5.5615,4.1213,,5.8976,4.3992,4.9804,232.240,241.9472,221.5953,179.730,402.4811,178.8386,200.2170,0.0427,,0.0775,0.1052,0.0349,,0.0000,,24.0861,,24.0866,,0.6846,84.2702,,8.127,,2.7994E+02,,2.4767E+00,,17.8765,17.8764,0.1423,,97.991,75.835,,,,,,,,,,,,
CalCOFI,2007SR,045,47,2007_045d,21-Jul-2020 15:03:22,21-Jul-2020 07:03:22,31.65606,-123.06934,086.7 100.0,086.7,100.0,38.000,38.269,,17.8837,,17.8840,,17.8839,33.4129,,33.4131,33.4142,,33.4158,33.4145,5.3256,,5.5470,5.5617,4.1217,,5.8985,4.4001,4.9809,232.246,241.9535,221.6008,179.745,402.4957,178.8701,200.2355,0.0427,,0.0775,0.1052,0.0360,,0.0000,,24.0868,,24.0877,,0.6861,84.2380,,8.127,,2.7993E+02,,2.4155E+00,,17.8772,17.8775,0.1462,,97.996,75.844,,,,,,,,,,,,
CalCOFI,2007SR,045,47,2007_045d,21-Jul-2020 15:03:24,21-Jul-2020 07:03:24,31.65606,-123.06934,086.7 100.0,086.7,100.0,39.000,39.276,,17.8864,,17.8853,,17.8859,33.4166,,33.4168,33.4153,,33.4169,33.4169,5.3232,,5.5445,5.5591,4.1221,,5.8995,4.4010,4.9801,232.141,241.8439,221.5056,179.761,402.2389,178.9037,200.2047,0.0446,,0.0998,0.1157,0.0372,,0.0000,,24.0889,,24.0883,,0.6853,84.2550,,8.127,,2.7993E+02,,2.3595E+00,,17.8798,17.8787,0.1500,,97.959,75.854,,,,,,,,,,,,
CalCOFI,2007SR,045,47,2007_045d,21-Jul-2020 15:03:27,21-Jul-2020 07:03:27,31.65606,-123.06934,086.7 100.0,086.7,100.0,40.000,40.283,,17.8767,,17.8757,,17.8762,33.4164,,33.4166,33.4171,,33.4187,33.4177,5.3204,,5.5416,5.5562,4.1228,,5.9012,4.4026,4.9794,232.018,241.7155,221.3941,179.795,401.9381,178.9752,200.1847,0.0447,,0.1010,0.1163,0.0375,,0.0000,,24.0912,,24.0920,,0.6868,84.2234,,8.127,,2.8179E+02,,2.3082E+00,,17.8699,17.8689,0.1539,,97.889,75.855,,,,,,,,,,,,
CalCOFI,2007SR,045,47,2007_045d,21-Jul-2020 15:03:29,21-Jul-2020 07:03:29,31.65606,-123.06934,086.7 100.0,086.7,100.0,41.000,41.291,,17.8671,,17.8665,,17.8668,33.4161,,33.4163,33.4167,,33.4183,33.4173,5.3206,,5.5418,5.5564,4.1233,,5.9024,4.4038,4.9801,232.026,241.7238,221.4013,179.814,401.9577,179.0152,200.2083,0.0463,,0.1198,0.1249,0.0374,,0.0000,,24.0934,,24.0940,,0.6868,84.2222,,8.128,,2.8183E+02,,2.2565E+00,,17.8602,17.8595,0.1578,,97.875,75.850,41,17.776,33.4007,,242.68,0.157,0.039,0.0,0.00,0.00,0.25,0.86
CalCOFI,2007SR,045,47,2007_045d,21-Jul-2020 15:03:30,21-Jul-2020 07:03:30,31.65606,-123.06934,086.7 100.0,086.7,100.0,42.000,42.298,,17.8526,,17.8512,,17.8519,33.4140,,33.4142,33.4142,,33.4158,33.4150,5.3369,,5.5588,5.5735,4.1259,,5.9086,4.4098,4.9917,232.736,242.4650,222.0450,179.928,403.6942,179.2548,200.6499,0.0475,,0.1338,0.1313,0.0372,,0.0000,,24.0953,,24.0958,,0.6872,84.2151,,8.128,,2.8183E+02,,2.1953E+00,,17.8455,17.8440,0.1616,,98.146,75.875,,,,,,,,,,,,
CalCOFI,2007SR,045,47,2007_045d,21-Jul-2020 15:03:32,21-Jul-2020 07:03:32,31.65606,-123.06934,086.7 100.0,086.7,100.0,43.000,43.305,,17.7740,,17.7757,,17.7749,33.4005,,33.4007,33.4024,,33.4040,33.4024,5.3309,,5.5526,5.5672,4.1318,,5.9226,4.4235,4.9954,232.475,242.1926,221.8084,180.181,403.0559,179.7867,200.7976,0.0495,,0.1573,0.1418,0.0365,,0.0000,,24.1040,,24.1051,,0.6870,84.2201,,8.129,,2.8183E+02,,2.1440E+00,,17.7668,17.7685,0.1655,,97.883,75.868,,,,,,,,,,,,
CalCOFI,2007SR,045,47,2007_045d,21-Jul-2020 15:03:36,21-Jul-2020 07:03:36,31.65606,-123.06934,086.7 100.0,086.7,100.0,44.000,44.312,,17.7266,,17.7421,,17.7344,33.3917,,33.3919,33.3913,,33.3929,33.3924,5.3339,,5.5557,5.5704,4.1450,,5.9542,4.4541,5.0123,232.602,242.3251,221.9235,180.757,403.3665,180.9976,201.4606,0.0479,,0.1385,0.1334,0.0355,,0.0000,,24.1088,,24.1047,,0.6887,84.1821,,8.129,,2.8261E+02,,2.1015E+00,,17.7192,17.7347,0.1693,,97.843,76.056,,,,,,,,,,,,
CalCOFI,2007SR,045,47,2007_045d,21-Jul-2020 15:03:37,21-Jul-2020 07:03:37,31.65606,-123.06934,086.7 100.0,086.7,100.0,45.000,45.319,,17.5823,,17.5656,,17.5740,33.3634,,33.3636,33.3575,,33.3591,33.3614,5.4186,,5.6442,5.6594,4.1646,,6.0009,4.4995,5.0795,236.293,246.1782,225.2697,181.612,412.3941,182.7951,204.0324,0.0523,,0.1902,0.1561,0.0347,,0.0000,,24.1219,,24.1213,,0.6896,84.1653,,8.130,,2.8376E+02,,2.0489E+00,,17.5747,17.5580,0.1731,,99.106,76.145,,,,,,,,,,,,
CalCOFI,2007SR,045,47,2007_045d,21-Jul-2020 15:03:38,21-Jul-2020 07:03:38,31.65606,-123.06934,086.7 100.0,086.7,100.0,46.000,46.327,,17.3739,,17.3410,,17.3575,33.3118,,33.3120,33.3017,,33.3033,33.3077,5.4457,,5.6725,5.6879,4.1745,,6.0246,4.5224,5.1052,237.475,247.4121,226.3413,182.039,415.2851,183.6928,205.0171,0.0528,,0.1961,0.1586,0.0338,,0.0000,,24.1322,,24.1323,,0.6908,84.1389,,8.132,,2.8317E+02,,2.0120E+00,,17.3662,17.3334,0.1769,,99.176,75.971,,,,,,,,,,,,
CalCOFI,2007SR,045,47,2007_045d,21-Jul-2020 15:03:40,21-Jul-2020 07:03:40,31.65606,-123.06934,086.7 100.0,086.7,100.0,47.000,47.334,,17.2291,,17.3360,,17.2826,33.2940,,33.2942,33.3129,,33.3145,33.3044,5.4342,,5.6605,5.6758,4.1815,,6.0413,4.5386,5.1072,236.969,246.8838,225.8826,182.342,414.0475,184.3298,205.1062,0.0547,,0.2184,0.1680,0.0324,,0.0000,,24.1529,,24.1421,,0.6922,84.1095,,8.131,,2.8222E+02,,1.9663E+00,,17.2213,17.3281,0.1808,,98.681,76.096,,,,,,,,,,,,
CalCOFI,2007SR,045,47,2007_045d,21-Jul-2020 15:03:43,21-Jul-2020 07:03:43,31.65606,-123.06934,086.7 100.0,086.7,100.0,48.000,48.341,,17.1097,,17.1118,,17.1108,33.2707,,33.2709,33.2690,,33.2706,33.2708,5.4776,,5.7058,5.7214,4.2084,,6.1055,4.6010,5.1612,238.859,248.8568,227.5961,183.512,418.6702,186.7895,207.1928,0.0538,,0.2079,0.1636,0.0316,,0.0000,,24.1633,,24.1616,,0.6912,84.1300,,8.130,,2.8420E+02,,1.9101E+00,,17.1018,17.1039,0.1845,,99.227,76.237,,,,,,,,,,,,
CalCOFI,2007SR,045,47,2007_045d,21-Jul-2020 15:03:45,21-Jul-2020 07:03:45,31.65606,-123.06934,086.7 100.0,086.7,100.0,49.000,49.348,,16.9544,,16.9482,,16.9513,33.2913,,33.2915,33.2920,,33.2936,33.2926,5.5051,,5.7346,5.7503,4.2302,,6.1576,4.6515,5.2009,240.044,250.0938,228.6704,184.453,421.5685,188.7677,208.7191,0.0587,,0.2654,0.1870,0.0317,,0.0000,,24.2157,,24.2178,,0.6921,84.1115,,8.131,,2.8565E+02,,1.8592E+00,,16.9464,16.9402,0.1883,,99.439,76.401,,,,,,,,,,,,
CalCOFI,2007SR,045,47,2007_045d,21-Jul-2020 15:03:47,21-Jul-2020 07:03:47,31.65606,-123.06934,086.7 100.0,086.7,100.0,50.000,50.356,,16.8272,,16.8099,,16.8186,33.2916,,33.2918,33.2903,,33.2919,33.2919,5.5693,,5.8017,5.8177,4.2461,,6.1955,4.6883,5.2530,242.837,253.0094,231.2025,185.143,428.3998,190.2183,210.7104,0.0610,,0.2925,0.1976,0.0316,,0.0000,,24.2457,,24.2488,,0.6928,84.0970,,8.132,,2.8399E+02,,1.8140E+00,,16.8191,16.8018,0.1920,,100.351,76.484,,,,,,,,,,,,